Location: Worth Mountain WMA
(34.9569°N, 81.4819°W)
Time: 23:07:12
(UTC-05:00)

Amateur Radio Satellites - All Passes

Search period start: 20 December 2014 22:37
Search period end: 21 December 2014 22:37
Location: Worth Mountain WMA, 34.9569°N, 81.4819°W

Satellite Date Start Highest point End Downlink Frequencies (MHz)
Time Altitude Azimuth
HUMSAT D 20 Dec 22:38:33 22:42:33 50° 260° (W) 22:46:36 437.325/437.525
ANTELSAT 20 Dec 22:38:43 22:43:11 41° 99° (E) 22:47:38 437.575/2403.000
QB50P1 20 Dec 22:44:56 22:48:36 28° 97° (E) 22:52:16 145.935-145.965
Oscar 11 20 Dec 22:47:43 22:48:41 11° 268° (W) 22:49:39 145.826/435.025
UKube-1 20 Dec 22:55:54 22:57:14 11° 267° (W) 22:58:35 .
DANDE 20 Dec 22:59:59 23:04:17 15° 277° (W) 23:08:46 436.750
BEESAT 2 20 Dec 23:07:23 23:11:31 63° 244° (WSW) 23:15:35 435.950
POPSAT HIP 1 20 Dec 23:13:11 23:17:26 62° 101° (E) 23:21:40 437.405
TIGRISAT 20 Dec 23:13:57 23:18:40 81° 283° (WNW) 23:23:23 435.000
VELOX 1 20 Dec 23:18:26 23:21:40 20° 265° (W) 23:24:55 145.980
ZACube-1 20 Dec 23:19:06 23:19:32 10° 269° (W) 23:19:59 437.345
ESTCUBE 1 20 Dec 23:20:11 23:24:36 50° 260° (W) 23:29:01 437.505/2401.250
TISAT 1 20 Dec 23:33:06 23:37:08 47° 74° (ENE) 23:41:10 437.305
SPROUT 20 Dec 23:36:57 23:41:03 47° 74° (ENE) 23:45:09 437.525
BUGSAT 1 20 Dec 23:39:18 23:43:21 78° 284° (WNW) 23:47:26 437.445
DUCHIFAT 1 20 Dec 23:41:09 23:45:20 59° 285° (WNW) 23:49:32 145.980
UNISAT 6 20 Dec 23:43:32 23:47:52 38° 288° (WNW) 23:52:13 437.425
O/OREOS (USA 219) 20 Dec 23:47:21 23:50:09 17° 100° (E) 23:52:56 437.305
YUBILEINY 20 Dec 23:51:43 00:00:17 62° 91° (E) 00:08:49 435.215
QB50P2 20 Dec 23:55:03 23:59:02 39° 287° (WNW) 00:03:00 145.880/145.840
PCSat 21 Dec 00:02:56 00:08:12 53° 248° (WSW) 00:13:25 145.827
POLYITAN 1 21 Dec 00:04:07 00:07:54 31° 288° (WNW) 00:11:41 437.675
NANOSAT C BR1 21 Dec 00:06:13 00:09:55 29° 289° (WNW) 00:13:38 145.865
BEESAT 3 21 Dec 00:07:40 00:09:09 12° 253° (WSW) 00:10:38 437.485
CUBEBUG 1 21 Dec 00:07:41 00:10:16 15° 266° (W) 00:12:51 437.445
RS-15 21 Dec 00:10:35 00:16:04 15° 261° (W) 00:21:40 29.354- 29.394
AIST 2 21 Dec 00:13:53 00:17:26 26° 249° (WSW) 00:20:56 435.215
ANTELSAT 21 Dec 00:16:29 00:19:37 18° 293° (WNW) 00:22:45 437.575/2403.000
QB50P1 21 Dec 00:21:08 00:24:17 21° 291° (WNW) 00:27:27 145.935-145.965
SWISSCUBE 21 Dec 00:25:06 00:29:11 29° 70° (ENE) 00:33:17 437.505
ITUPSAT 1 21 Dec 00:25:48 00:29:47 26° 69° (ENE) 00:33:45 437.325
M-CUBED/EXP-1 PRIME 21 Dec 00:25:54 00:29:09 18° 62° (ENE) 00:32:27 437.505
BEESAT 21 Dec 00:49:28 00:54:03 48° 73° (ENE) 00:58:40 436.000
TISAT 1 21 Dec 01:11:48 01:13:10 11° 267° (W) 01:14:32 437.305
SPROUT 21 Dec 01:15:53 01:17:21 12° 268° (W) 01:18:50 437.525
O/OREOS (USA 219) 21 Dec 01:25:05 01:29:12 36° 295° (WNW) 01:33:19 437.305
VERMONT LUNAR 21 Dec 01:31:52 01:33:55 15° 142° (SE) 01:35:58 437.305
AUBIESAT-1 21 Dec 01:33:01 01:37:48 82° 72° (ENE) 01:42:43 437.475
Oscar 19 21 Dec 01:43:39 01:48:47 58° 101° (E) 01:53:52 437.125/150
STARS 21 Dec 01:45:34 01:49:01 23° 69° (ENE) 01:52:28 437.465
PHONESAT 2.4 21 Dec 01:47:32 01:49:08 13° 141° (SE) 01:50:45 2401.200-2431.200
KKS-1 21 Dec 01:49:08 01:53:14 39° 72° (ENE) 01:57:21 437.445
YUBILEINY 21 Dec 01:50:46 01:57:34 25° 289° (WNW) 02:04:25 435.215
Gurwin Techsat 1B 21 Dec 01:58:17 02:01:32 16° 93° (E) 02:04:46 435.225
M-CUBED/EXP-1 PRIME 21 Dec 01:59:06 02:03:42 48° 256° (WSW) 02:08:28 437.505
ITAMSAT 1 21 Dec 02:00:30 02:04:57 29° 97° (E) 02:09:22 435.822/435.867
SWISSCUBE 21 Dec 02:03:03 02:06:58 25° 264° (W) 02:10:54 437.505
ITUPSAT 1 21 Dec 02:03:28 02:07:32 27° 263° (W) 02:11:38 437.325
BEESAT 21 Dec 02:29:29 02:32:06 15° 267° (W) 02:34:44 436.000
VERMONT LUNAR 21 Dec 03:08:20 03:11:52 83° 156° (SSE) 03:15:24 437.305
HORYU 2 21 Dec 03:14:41 03:18:49 35° 98° (E) 03:22:55 437.375
STARS 21 Dec 03:21:42 03:25:20 26° 263° (W) 03:29:01 437.465
PHONESAT 2.4 21 Dec 03:23:47 03:27:23 71° 154° (SSE) 03:31:00 2401.200-2431.200
Oscar 19 21 Dec 03:24:40 03:27:35 15° 296° (WNW) 03:30:29 437.125/150
KKS-1 21 Dec 03:27:23 03:30:00 15° 266° (W) 03:32:37 437.445
Gurwin Techsat 1B 21 Dec 03:36:36 03:41:44 52° 287° (WNW) 03:46:51 435.225
ITAMSAT 1 21 Dec 03:39:56 03:44:20 29° 291° (WNW) 03:48:43 435.822/435.867
AO-7 21 Dec 03:53:00 04:00:32 36° 99° (E) 04:07:59 29.400- 29.500
GONETS M04 21 Dec 03:58:22 04:00:02 11° 76° (ENE) 04:01:42
AIST 1 21 Dec 04:15:10 04:19:23 61° 266° (W) 04:23:34
JAS-2 21 Dec 04:34:20 04:38:21 21° 93° (E) 04:42:11 435.910
MOZHAYETS 4 21 Dec 04:37:07 04:41:45 81° 77° (ENE) 04:46:25
VERMONT LUNAR 21 Dec 04:47:07 04:50:24 35° 352° (N) 04:53:40 437.305
HORYU 2 21 Dec 04:52:03 04:55:12 19° 292° (WNW) 04:58:19 437.375
PHONESAT 2.4 21 Dec 05:02:50 05:06:15 38° 350° (N) 05:09:40 2401.200-2431.200
PRISM 21 Dec 05:12:53 05:16:24 26° 70° (ENE) 05:19:56 437.425
SO-50 21 Dec 05:26:46 05:30:45 24° 51° (NE) 05:34:44 436.795
CUTE-I 21 Dec 05:33:19 05:36:08 14° 93° (E) 05:38:56 437.470
AO-7 21 Dec 05:45:30 05:53:18 46° 295° (WNW) 06:01:05 29.400- 29.500
GONETS M04 21 Dec 05:46:25 05:55:12 74° 93° (E) 06:04:01
CUBESAT XI-V 21 Dec 06:01:44 06:06:09 43° 73° (ENE) 06:10:34 437.345
JAS-2 21 Dec 06:18:35 06:23:39 38° 290° (WNW) 06:28:24 435.910
STRAND 1 21 Dec 06:23:06 06:28:10 67° 74° (ENE) 06:33:14 437.568
VERMONT LUNAR 21 Dec 06:25:53 06:29:11 36° 9° (N) 06:32:28 437.305
Cubesat XI-IV 21 Dec 06:38:05 06:43:23 68° 102° (ESE) 06:48:40 437.490
PHONESAT 2.4 21 Dec 06:42:02 06:45:24 35° 7° (N) 06:48:47 2401.200-2431.200
PRISM 21 Dec 06:48:38 06:51:51 21° 264° (W) 06:55:06 437.425
SO-50 21 Dec 07:06:52 07:11:23 38° 247° (WSW) 07:15:53 436.795
CUTE-I 21 Dec 07:11:18 07:16:30 58° 287° (WNW) 07:21:42 437.470
CUBESAT XI-V 21 Dec 07:41:01 07:43:45 15° 267° (W) 07:46:29 437.345
GONETS M04 21 Dec 07:46:37 07:52:48 21° 291° (WNW) 07:59:03
VERMONT LUNAR 21 Dec 08:04:09 08:07:41 76° 205° (SSW) 08:11:12 437.305
STRAND 1 21 Dec 08:06:04 08:07:44 12° 268° (W) 08:09:25 437.568
SEEDS 21 Dec 08:18:39 08:19:57 11° 92° (E) 08:21:14 437.485
Cubesat XI-IV 21 Dec 08:20:21 08:22:50 14° 297° (WNW) 08:25:20 437.490
PHONESAT 2.4 21 Dec 08:20:42 08:24:20 88° 204° (SSW) 08:27:58 2401.200-2431.200
CUTE 1.7 + AOD 2 21 Dec 08:21:47 08:24:17 15° 93° (E) 08:26:47 437.475
BRITE-PL 21 Dec 08:37:19 08:41:35 31° 98° (E) 08:46:08 437.365/2234.400
HO-68 21 Dec 08:38:00 08:44:25 35° 98° (E) 08:50:47 435.675
MaSat-1 21 Dec 08:50:15 08:52:33 57° 294° (WNW) 08:54:47 437.345
GOMX 1 21 Dec 09:00:40 09:05:13 38° 99° (E) 09:10:01 467.674
Oscar 11 21 Dec 09:00:47 09:02:40 13° 92° (E) 09:04:34 145.826/435.025
UNISAT 6 21 Dec 09:06:18 09:07:18 11° 64° (ENE) 09:08:18 437.425
AAUSAT CUBESAT 2 21 Dec 09:09:44 09:13:37 34° 98° (E) 09:17:28 437.432
UKube-1 21 Dec 09:10:28 09:11:35 11° 92° (E) 09:12:42 .
DOVE 4 21 Dec 09:23:02 09:27:45 49° 100° (E) 09:32:42 437.250
CUBEBUG 2 21 Dec 09:24:03 09:27:05 17° 94° (E) 09:30:08 437.445
CANX-2 21 Dec 09:25:19 09:29:39 81° 283° (WNW) 09:33:57 2200.000
CUSAT 1 21 Dec 09:31:21 09:34:39 48° 92° (E) 09:39:01 437.405
ZACube-1 21 Dec 09:32:22 09:34:47 14° 93° (E) 09:37:13 437.345
ANTELSAT 21 Dec 09:35:30 09:38:59 24° 69° (ENE) 09:42:33 437.575/2403.000
QB50P1 21 Dec 09:36:15 09:38:34 15° 67° (ENE) 09:40:54 145.935-145.965
CINEMA 3 21 Dec 09:43:45 09:48:24 48° 99° (E) 09:53:10 145.822/145.860
VERMONT LUNAR 21 Dec 09:43:50 09:45:36 13° 218° (SW) 09:47:21 437.305
COMPASS 1 21 Dec 09:45:17 09:49:32 72° 284° (WNW) 09:53:45 437.405
SEEDS 21 Dec 09:51:52 09:56:01 49° 286° (WNW) 10:00:07 437.485
CUTE 1.7 + AOD 2 21 Dec 09:56:20 10:00:19 37° 287° (WNW) 10:04:17 437.475
FUNcube-1 21 Dec 09:57:38 10:01:32 27° 96° (E) 10:05:26 145.935
DELFI C3 21 Dec 09:57:51 10:01:52 51° 100° (E) 10:05:51 145.870
O/OREOS (USA 219) 21 Dec 09:59:29 10:02:50 20° 61° (ENE) 10:06:10 437.305
UWE-3 21 Dec 09:59:49 10:04:04 36° 98° (E) 10:08:22 435.000/436.395/437.385
PHONESAT 2.4 21 Dec 10:00:20 10:02:40 16° 217° (SW) 10:05:01 2401.200-2431.200
50 SAT 21 Dec 10:01:10 10:02:37 12° 92° (E) 10:04:05 437.505
POPSAT HIP 1 21 Dec 10:03:30 10:07:10 30° 72° (ENE) 10:10:51 437.405
RS-15 21 Dec 10:05:38 10:12:55 21° 101° (E) 10:20:07 29.354- 29.394
YUBILEINY 21 Dec 10:06:56 10:13:46 25° 71° (ENE) 10:20:34 435.215
TIGRISAT 21 Dec 10:09:41 10:13:55 58° 75° (ENE) 10:18:17 435.000
DX 1 21 Dec 10:13:22 10:17:42 69° 102° (ESE) 10:22:01 434.975-435.025
BRITE-PL 21 Dec 10:16:03 10:19:57 25° 289° (WNW) 10:24:04 437.365/2234.400
AISAT 21 Dec 10:18:58 10:22:36 24° 96° (E) 10:26:13 437.250
HO-68 21 Dec 10:25:34 10:32:03 39° 294° (WNW) 10:38:31 435.675
BUGSAT 1 21 Dec 10:26:29 10:30:23 44° 74° (ENE) 10:34:16 437.445
HUMSAT D 21 Dec 10:26:32 10:30:27 32° 98° (E) 10:34:21 437.325/437.525
DANDE 21 Dec 10:26:46 10:29:53 37° 286° (WNW) 10:33:58 436.750
DUCHIFAT 1 21 Dec 10:30:35 10:34:43 65° 76° (ENE) 10:38:54 145.980
Oscar 11 21 Dec 10:34:52 10:39:03 46° 286° (WNW) 10:43:11 145.826/435.025
UNISAT 6 21 Dec 10:39:12 10:43:29 60° 259° (W) 10:47:54 437.425
GOMX 1 21 Dec 10:39:32 10:43:05 21° 291° (WNW) 10:46:47 467.674
UKube-1 21 Dec 10:43:47 10:48:00 52° 286° (WNW) 10:52:12 .
QB50P2 21 Dec 10:44:36 10:48:49 81° 258° (WSW) 10:53:03 145.880/145.840
AAUSAT CUBESAT 2 21 Dec 10:46:19 10:48:58 17° 292° (WNW) 10:51:38 437.432
POLYITAN 1 21 Dec 10:53:47 10:57:56 62° 259° (W) 11:02:07 437.675
NANOSAT C BR1 21 Dec 10:55:22 10:59:30 60° 259° (W) 11:03:40 145.865
CUBEBUG 2 21 Dec 10:59:30 11:03:52 41° 287° (WNW) 11:08:19 437.445
DOVE 4 21 Dec 11:02:09 11:05:09 17° 292° (WNW) 11:08:13 437.250
ZACube-1 21 Dec 11:06:58 11:11:19 46° 286° (WNW) 11:15:42 437.345
QB50P1 21 Dec 11:10:10 11:14:06 39° 261° (W) 11:18:03 145.935-145.965
VELOX 1 21 Dec 11:11:11 11:15:37 82° 284° (WNW) 11:20:02 145.980
ANTELSAT 21 Dec 11:12:03 11:15:39 25° 264° (W) 11:19:20 437.575/2403.000
ESTCUBE 1 21 Dec 11:16:28 11:20:44 42° 99° (E) 11:24:58 437.505/2401.250
JUGNU 21 Dec 11:17:16 11:19:53 13° 167° (SSE) 11:22:29 437.505
CINEMA 3 21 Dec 11:22:16 11:25:12 16° 292° (WNW) 11:28:12 145.822/145.860
SPROUT 21 Dec 11:29:43 11:30:47 11° 92° (E) 11:31:52 437.525
50 SAT 21 Dec 11:34:03 11:38:02 45° 286° (WNW) 11:42:00 437.505
FUNcube-1 21 Dec 11:34:05 11:37:43 24° 290° (WNW) 11:41:22 145.935
DELFI C3 21 Dec 11:35:35 11:36:38 11° 294° (WNW) 11:37:41 145.870
UWE-3 21 Dec 11:37:03 11:40:19 20° 291° (WNW) 11:43:38 435.000/436.395/437.385
O/OREOS (USA 219) 21 Dec 11:38:13 11:42:15 33° 256° (WSW) 11:46:18 437.305
POPSAT HIP 1 21 Dec 11:40:12 11:43:04 18° 265° (W) 11:45:57 437.405
AISAT 21 Dec 11:55:29 11:59:06 25° 290° (WNW) 12:02:44 437.250
CUBEBUG 1 21 Dec 11:58:04 12:02:21 64° 285° (WNW) 12:06:38 437.445
YUBILEINY 21 Dec 12:02:33 12:11:03 61° 269° (W) 12:19:33 435.215
HUMSAT D 21 Dec 12:02:59 12:05:58 19° 291° (WNW) 12:08:58 437.325/437.525
BUGSAT 1 21 Dec 12:04:50 12:06:04 11° 267° (W) 12:07:19 437.445
RS-15 21 Dec 12:12:49 12:23:49 84° 299° (WNW) 12:34:50 29.354- 29.394
BEESAT 3 21 Dec 12:19:48 12:22:53 21° 110° (ESE) 12:26:01 437.485
SRMSAT 21 Dec 12:23:12 12:24:49 11° 165° (SSE) 12:26:25 437.500
AIST 2 21 Dec 12:33:10 12:34:27 11° 107° (ESE) 12:35:45 435.215
BEESAT 21 Dec 12:54:30 12:57:26 16° 94° (E) 13:00:20 436.000
ESTCUBE 1 21 Dec 12:54:36 12:57:13 16° 293° (WNW) 12:59:50 437.505/2401.250
TISAT 1 21 Dec 12:56:59 13:01:07 56° 285° (WNW) 13:05:15 437.305
Oscar 19 21 Dec 12:57:12 13:02:13 59° 74° (ENE) 13:07:18 437.125/150
PCSat 21 Dec 12:58:32 13:03:15 32° 108° (ESE) 13:08:00 145.827
BEESAT 2 21 Dec 12:59:20 13:03:20 55° 116° (ESE) 13:07:25 435.950
ISS 21 Dec 13:00:52 13:04:08 65° 135° (SE) 13:07:25 145.825
SPROUT 21 Dec 13:02:57 13:07:07 51° 286° (WNW) 13:11:18 437.525
JUGNU 21 Dec 13:04:14 13:08:11 18° 177° (S) 13:12:07 437.505
ITAMSAT 1 21 Dec 13:15:23 13:19:55 32° 70° (ENE) 13:24:27 435.822/435.867
Gurwin Techsat 1B 21 Dec 13:16:15 13:19:59 20° 66° (ENE) 13:23:43 435.225
M-CUBED/EXP-1 PRIME 21 Dec 13:47:02 13:49:56 18° 97° (E) 13:52:39 437.505
BEESAT 3 21 Dec 13:57:19 14:00:52 28° 306° (NW) 14:04:29 437.485
SWISSCUBE 21 Dec 14:05:53 14:10:39 75° 285° (WNW) 14:15:22 437.505
ITUPSAT 1 21 Dec 14:06:42 14:11:29 81° 284° (WNW) 14:16:13 437.325
AIST 2 21 Dec 14:08:24 14:12:32 54° 301° (WNW) 14:16:45 435.215
SRMSAT 21 Dec 14:09:27 14:13:14 17° 175° (S) 14:17:01 437.500
HORYU 2 21 Dec 14:10:40 14:14:07 22° 69° (ENE) 14:17:34 437.375
RS-15 21 Dec 14:29:45 14:38:01 24° 324° (NW) 14:46:23 29.354- 29.394
BEESAT 21 Dec 14:30:56 14:35:26 43° 288° (WNW) 14:39:54 436.000
ISS 21 Dec 14:39:02 14:41:00 15° 331° (NNW) 14:42:58 145.825
Oscar 19 21 Dec 14:39:30 14:41:54 13° 268° (W) 14:44:18 437.125/150
BEESAT 2 21 Dec 14:39:54 14:41:55 13° 312° (NW) 14:43:58 435.950
PCSat 21 Dec 14:41:51 14:46:35 31° 304° (NW) 14:51:21 145.827
AO-7 21 Dec 14:48:31 14:55:55 38° 63° (ENE) 15:03:22 29.400- 29.500
JUGNU 21 Dec 14:52:54 14:56:30 16° 188° (S) 15:00:05 437.505
Gurwin Techsat 1B 21 Dec 14:54:31 14:59:34 45° 261° (W) 15:04:39 435.225
AUBIESAT-1 21 Dec 14:54:34 14:58:47 68° 289° (WNW) 15:02:35 437.475
ITAMSAT 1 21 Dec 14:55:05 14:59:21 26° 264° (W) 15:03:38 435.822/435.867
STARS 21 Dec 15:14:08 15:18:35 74° 102° (ESE) 15:23:01 437.465
KKS-1 21 Dec 15:19:52 15:24:17 61° 285° (WNW) 15:28:42 437.445
M-CUBED/EXP-1 PRIME 21 Dec 15:21:18 15:25:00 29° 295° (WNW) 15:28:26 437.505
HORYU 2 21 Dec 15:46:46 15:50:35 28° 263° (W) 15:54:28 437.375
SRMSAT 21 Dec 15:57:56 16:01:42 17° 185° (S) 16:05:28 437.500
GONETS M04 21 Dec 16:01:40 16:09:10 31° 73° (ENE) 16:16:33
JAS-2 21 Dec 16:24:03 16:31:37 62° 73° (ENE) 16:38:34 435.910
MOZHAYETS 4 21 Dec 16:36:28 16:40:14 24° 95° (E) 16:43:58
AO-7 21 Dec 16:40:40 16:48:28 44° 259° (W) 16:56:22 29.400- 29.500
AIST 1 21 Dec 16:40:58 16:45:21 89° 276° (W) 16:49:45
CUTE-I 21 Dec 16:51:59 16:55:33 19° 65° (ENE) 16:59:08 437.470
RS-15 21 Dec 16:53:32 16:56:37 11° 1° (N) 16:59:44 29.354- 29.394
SRMSAT 21 Dec 17:48:41 17:50:07 11° 195° (SSW) 17:51:34 437.500
Cubesat XI-IV 21 Dec 17:56:51 18:02:10 81° 75° (ENE) 18:07:31 437.490
GONETS M04 21 Dec 17:57:53 18:06:11 51° 271° (W) 18:14:26
CUBESAT XI-V 21 Dec 18:03:32 18:05:54 14° 92° (E) 18:08:15 437.345
JAS-2 21 Dec 18:10:59 18:16:48 23° 266° (W) 18:22:20 435.910
MOZHAYETS 4 21 Dec 18:13:31 18:17:22 27° 290° (WNW) 18:21:11
MaSat-1 21 Dec 18:23:00 18:25:24 49° 66° (ENE) 18:27:56 437.345
CUTE-I 21 Dec 18:30:04 18:35:12 48° 260° (W) 18:40:20 437.470
PRISM 21 Dec 18:33:58 18:38:06 70° 102° (ESE) 18:42:11 437.425
STRAND 1 21 Dec 18:37:31 18:41:55 29° 97° (E) 18:46:17 437.568
HO-68 21 Dec 19:04:47 19:09:34 20° 60° (ENE) 19:14:21 435.675
RS-15 21 Dec 19:06:31 19:15:14 25° 37° (NE) 19:24:09 29.354- 29.394
DANDE 21 Dec 19:26:58 19:32:46 21° 70° (ENE) 19:38:55 436.750
ISS 21 Dec 19:32:15 19:34:44 20° 32° (NNE) 19:37:12 145.825
CUBESAT XI-V 21 Dec 19:39:09 19:43:32 46° 286° (WNW) 19:47:55 437.345
SO-50 21 Dec 19:40:16 19:42:32 14° 107° (ESE) 19:44:49 436.795
BRITE-PL 21 Dec 19:46:41 19:49:47 21° 70° (ENE) 19:52:52 437.365/2234.400
AAUSAT CUBESAT 2 21 Dec 19:59:01 20:01:41 17° 68° (ENE) 20:04:22 437.432
GOMX 1 21 Dec 20:07:08 20:10:29 24° 71° (ENE) 20:13:51 467.674
CUSAT 1 21 Dec 20:11:34 20:19:18 50° 77° (ENE) 20:27:28 437.405
CANX-2 21 Dec 20:15:10 20:19:14 46° 74° (ENE) 20:23:21 2200.000
STRAND 1 21 Dec 20:16:42 20:20:58 28° 291° (WNW) 20:25:13 437.568
DOVE 4 21 Dec 20:26:48 20:30:23 29° 72° (ENE) 20:34:01 437.250
COMPASS 1 21 Dec 20:33:36 20:37:40 49° 74° (ENE) 20:41:46 437.405
SEEDS 21 Dec 20:40:37 20:44:50 74° 76° (ENE) 20:49:06 437.485
CINEMA 3 21 Dec 20:43:32 20:47:00 26° 71° (ENE) 20:50:33 145.822/145.860
DELFI C3 21 Dec 20:43:57 20:47:06 22° 70° (ENE) 20:50:15 145.870
CUTE 1.7 + AOD 2 21 Dec 20:45:37 20:49:52 82° 258° (WSW) 20:54:11 437.475
HO-68 21 Dec 20:49:21 20:56:30 73° 256° (WSW) 21:03:42 435.675
FUNcube-1 21 Dec 20:52:16 20:54:27 14° 67° (ENE) 20:56:40 145.935
UWE-3 21 Dec 20:55:17 20:58:11 19° 68° (ENE) 21:01:08 435.000/436.395/437.385
DX 1 21 Dec 21:06:00 21:10:02 38° 72° (ENE) 21:14:03 434.975-435.025
ISS 21 Dec 21:08:21 21:11:24 38° 227° (SW) 21:14:27 145.825
DANDE 21 Dec 21:08:43 21:16:46 80° 264° (W) 21:25:29 436.750
AISAT 21 Dec 21:15:12 21:17:51 16° 67° (ENE) 21:20:29 437.250
HUMSAT D 21 Dec 21:17:05 21:19:32 16° 68° (ENE) 21:22:01 437.325/437.525
RS-15 21 Dec 21:18:03 21:29:28 83° 61° (ENE) 21:41:23 29.354- 29.394
SO-50 21 Dec 21:18:10 21:22:33 51° 303° (WNW) 21:27:05 436.795
BEESAT 2 21 Dec 21:23:41 21:26:07 15° 49° (NE) 21:28:32 435.950
BRITE-PL 21 Dec 21:24:45 21:28:11 24° 264° (W) 21:31:36 437.365/2234.400
Oscar 11 21 Dec 21:26:02 21:30:21 88° 77° (ENE) 21:34:43 145.826/435.025
AAUSAT CUBESAT 2 21 Dec 21:33:14 21:37:03 34° 262° (W) 21:40:54 437.432
UKube-1 21 Dec 21:35:22 21:39:42 86° 75° (ENE) 21:44:03 .
GOMX 1 21 Dec 21:45:28 21:48:34 20° 265° (W) 21:51:42 467.674
PCSat 21 Dec 21:50:38 21:53:37 15° 48° (NE) 21:56:34 145.827
CANX-2 21 Dec 21:53:44 21:55:23 12° 268° (W) 21:57:03 2200.000
CUBEBUG 2 21 Dec 21:54:42 21:58:50 69° 259° (W) 22:03:06 437.445
CUSAT 1 21 Dec 21:55:03 22:02:08 35° 271° (W) 22:09:30 437.405
ZACube-1 21 Dec 21:59:49 22:03:59 86° 257° (WSW) 22:08:15 437.345
DOVE 4 21 Dec 22:05:31 22:08:13 17° 266° (W) 22:10:57 437.250
VELOX 1 21 Dec 22:05:46 22:10:07 59° 75° (ENE) 22:14:27 145.980
TIGRISAT 21 Dec 22:05:54 22:09:00 17° 94° (E) 22:12:04 435.000
COMPASS 1 21 Dec 22:12:28 22:13:38 11° 268° (W) 22:14:47 437.405
ESTCUBE 1 21 Dec 22:13:26 22:17:15 27° 70° (ENE) 22:21:04 437.505/2401.250
DELFI C3 21 Dec 22:18:51 22:22:12 24° 264° (W) 22:25:36 145.870
50 SAT 21 Dec 22:18:51 22:22:50 70° 76° (ENE) 22:26:52 437.505
BEESAT 3 21 Dec 22:19:27 22:23:35 62° 59° (ENE) 22:27:39 437.485
DUCHIFAT 1 21 Dec 22:20:46 22:22:58 14° 93° (E) 22:25:11 145.980
CINEMA 3 21 Dec 22:21:11 22:24:12 20° 266° (W) 22:27:17 145.822/145.860
FUNcube-1 21 Dec 22:26:30 22:30:25 40° 262° (W) 22:34:25 145.935
